[[{"header":{"parameterUnit":"m.s-1","parameterCategory":1,"la1":30.2992,"la2":30.254,"lo1":-89.0895,"lo2":-89.0443,"dy":0.0025,"dx":0.0025,"nx":19,"ny":19,"refTime":"2026-04-03T09:00:00:Z","depth":0,"parameterNumber":2,"parameterNumberName":"U-component_of_WINDS"},"data":[0,0,0,-5.7065,-5.7069,-5.724,-5.724,-5.7481,-5.7483,0,0,0,0,0,0,0,0,0,0,0,-5.7028,-5.703,-5.7065,-5.707,-5.724,-5.724,-5.748,-5.7483,0,0,0,0,0,0,0,0,0,0,0,-5.7027,-5.703,-5.7032,-5.707,-5.724,-5.7241,-5.748,-5.7343,0,0,0,0,0,0,0,0,0,0,-5.7174,-5.7153,-5.7029,-5.7033,-5.7071,-5.724,-5.7241,-5.7336,-5.7352,-5.7413,0,-5.7471,0,-5.7481,-5.75,-5.7501,0,0,0,-5.7059,-5.714,-5.7174,-5.7033,-5.7073,-5.7239,-5.716,-5.7344,-5.7362,-5.7434,-5.7474,-5.7483,-5.7485,-5.7502,-5.7503,-5.7893,-5.7896,0,0,-5.705,-5.7066,-5.7162,-5.7186,-5.7161,-5.7155,-5.7166,-5.7355,-5.74,-5.7475,-5.7488,-5.7489,-5.7504,-5.7506,-5.7891,-5.7894,0,0,0,-5.703,-5.706,-5.7089,-5.7177,-5.7206,-5.716,-5.7172,-5.7391,-5.74,-5.749,-5.7492,-5.7505,-5.7509,-5.7889,-5.7892,-5.8022,0,0,0,-5.7024,-5.7048,-5.7085,-5.7097,-5.7203,-5.7301,-5.7205,-5.7387,-5.7407,-5.7491,-5.7505,-5.7511,-5.7886,-5.7891,-5.8013,-5.8081,0,0,0,-5.7013,-5.7046,-5.7076,-5.7097,-5.7171,-5.7297,-5.7316,-5.7391,-5.7409,-5.7501,-5.7512,-5.7884,-5.789,-5.8005,-5.8068,-5.819,0,0,0,-5.7005,-5.7188,-5.7078,-5.7283,-5.717,-5.7377,-5.7314,-5.7468,-5.7562,-5.7507,-5.7886,-5.7892,-5.8003,-5.8059,-5.8181,-5.8295,-5.8344,0,0,-5.7244,-5.7217,-5.7337,-5.7244,-5.7475,-5.7349,-5.76,-5.767,-5.7664,-5.7817,-5.7827,-5.8016,-5.8067,-5.8188,-5.8612,-5.8651,0,0,0,-5.7418,-5.7504,-5.7562,-5.7654,-5.7713,-5.7771,-5.7802,-5.7829,-5.7958,-5.7746,-5.8092,-5.8122,-5.8192,-5.8246,-5.8279,-5.8339,-5.7917,-5.7917,-5.7916,-5.7779,-5.7763,-5.796,-5.7965,-5.8055,-5.8087,-5.8159,-5.82,-5.8155,-5.8238,-5.8283,-5.8543,-5.8607,-5.8632,-5.8694,-5.8342,-5.8343,-5.8343,-5.8343,-5.8129,-5.8249,-5.8188,-5.8358,-5.834,-5.8482,-5.8521,-5.8485,-5.8615,-5.8507,-5.8568,-5.8451,-5.8675,-5.8729,-5.8353,-5.8351,-5.835,-5.8349,-5.8348,-5.8364,-5.8418,-5.8449,-5.8582,-5.8686,-5.8685,-5.8814,-5.8792,-5.8773,-5.8833,-5.888,-5.8877,-5.8873,-5.8857,-5.8858,-5.8859,-5.886,-5.886,-5.8861,-5.8595,-5.8625,-5.8737,-5.8818,-5.8875,-5.8948,-5.8984,-5.904,-5.9097,-5.9071,-5.9071,-5.902,-5.87,-5.862,-5.8875,-5.8872,-5.887,-5.8869,-5.8868,-5.8956,-5.8871,-5.9043,-5.9102,-5.9196,-5.9302,-5.9274,-5.9391,-5.9434,-5.9499,-5.9435,-5.9202,-5.9172,-5.9145,-5.9079,-5.9437,-5.9437,-5.9437,-5.9437,-5.9154,-5.9137,-5.931,-5.9404,-5.9494,-5.9487,-5.9684,-5.9715,-5.9733,-5.9759,-5.9704,-5.9615,-5.9589,-5.9574,-5.9538,-5.9476,-5.9928,-5.9928,-5.9929,-5.9375,-5.9367,-5.9538,-5.9556,-5.9629,-5.9693,-5.9877,-5.9989,-5.9992,-5.9948,-5.9779,-5.9759,-5.9614,-5.9568,-5.9519,-5.9464,-5.9349,0,0]},{"header":{"parameterUnit":"m.s-1","parameterCategory":1,"la1":30.2992,"la2":30.254,"lo1":-89.0895,"lo2":-89.0443,"dy":0.0025,"dx":0.0025,"nx":19,"ny":19,"refTime":"2026-04-03T09:00:00:Z","depth":0,"parameterNumber":3,"parameterNumberName":"V-component_of_WINDS"},"data":[0,0,0,0.6872,0.6871,0.6846,0.6846,0.6816,0.6815,0,0,0,0,0,0,0,0,0,0,0,0.6881,0.6881,0.6872,0.6871,0.6846,0.6846,0.6816,0.6815,0,0,0,0,0,0,0,0,0,0,0,0.6881,0.6881,0.6881,0.6871,0.6846,0.6846,0.6816,0.6834,0,0,0,0,0,0,0,0,0,0,0.6858,0.6868,0.6881,0.6881,0.6871,0.6846,0.6846,0.6835,0.6833,0.6828,0,0.6825,0,0.682,0.6814,0.6813,0,0,0,0.687,0.687,0.6862,0.6881,0.6871,0.6846,0.6857,0.6834,0.6831,0.6826,0.6824,0.6823,0.6819,0.6813,0.6813,0.6795,0.6795,0,0,0.6871,0.6877,0.6863,0.686,0.6865,0.6858,0.6856,0.6832,0.6831,0.6824,0.6823,0.6819,0.6813,0.6813,0.6795,0.6795,0,0,0,0.6876,0.6878,0.687,0.6862,0.6857,0.6857,0.6855,0.6832,0.6829,0.6822,0.6819,0.6813,0.6813,0.6795,0.6795,0.6801,0,0,0,0.6877,0.6881,0.6871,0.6874,0.6858,0.6844,0.6856,0.6831,0.6828,0.6819,0.6813,0.6812,0.6795,0.6795,0.6801,0.6802,0,0,0,0.6882,0.6881,0.6879,0.6875,0.6864,0.6845,0.684,0.683,0.6826,0.6813,0.6812,0.6795,0.6795,0.6801,0.6802,0.68,0,0,0,0.6889,0.6882,0.6879,0.6871,0.6865,0.6849,0.684,0.6828,0.6818,0.6813,0.6795,0.6795,0.6801,0.6802,0.68,0.6799,0.6799,0,0,0.6884,0.6882,0.6877,0.6873,0.686,0.6852,0.684,0.6824,0.6817,0.6803,0.6802,0.6801,0.6802,0.68,0.68,0.68,0,0,0,0.6878,0.6874,0.6869,0.6861,0.6851,0.6842,0.6828,0.6823,0.6811,0.6811,0.6799,0.68,0.6798,0.6798,0.6798,0.6797,0.6795,0.6795,0.6795,0.6878,0.6872,0.6863,0.6854,0.6846,0.6834,0.6827,0.6818,0.6811,0.6809,0.6804,0.6805,0.6804,0.6805,0.6803,0.6803,0.6803,0.6803,0.6803,0.6871,0.6865,0.686,0.685,0.6843,0.6834,0.6823,0.6819,0.681,0.6807,0.6805,0.6803,0.6805,0.6804,0.6804,0.6804,0.6804,0.6804,0.6803,0.687,0.6867,0.6862,0.6851,0.6844,0.6835,0.6827,0.682,0.6814,0.6813,0.6808,0.6807,0.6807,0.6811,0.6811,0.6811,0.6811,0.6811,0.6811,0.6871,0.6866,0.6861,0.6851,0.6847,0.684,0.6829,0.6824,0.6816,0.6812,0.6812,0.6807,0.6807,0.6807,0.6811,0.6811,0.6811,0.6811,0.6811,0.6865,0.6867,0.6858,0.6854,0.6844,0.6838,0.6831,0.6821,0.6816,0.6813,0.6809,0.681,0.6807,0.6807,0.6807,0.681,0.681,0.681,0.681,0.6865,0.6864,0.6855,0.6849,0.6842,0.6836,0.6828,0.682,0.6812,0.6809,0.6808,0.6808,0.6808,0.6805,0.6804,0.6804,0.6807,0.6807,0.6807,0.6861,0.686,0.6853,0.6848,0.684,0.6834,0.6826,0.6819,0.681,0.6807,0.6807,0.6807,0.6806,0.6807,0.6801,0.6801,0.6801,0,0]}]]